This is the latest recevied weather packets stored in our database for station/object W1HVD. If no packets are shown the sender has not sent any weather packets the latest 10 day(s).
| Time | Temp. | Humidity | Pressure | Rain* | Wind** | Luminosity | Snow |
|---|---|---|---|---|---|---|---|
| 1777716691 | 5.56° C | 92% | 1012.2 hPa | 0 mm | - | 28 W/m² | - |
| 1777716389 | 5.56° C | 92% | 1012.1 hPa | 0 mm | - | 21 W/m² | - |
| 1777716087 | 5.56° C | 93% | 1012 hPa | 0 mm | - | 15 W/m² | - |
| 1777715785 | 5.56° C | 92% | 1012.1 hPa | 0 mm | - | 13 W/m² | - |
| 1777715482 | 5.56° C | 92% | 1011.9 hPa | 0 mm | - | 9 W/m² | - |
| 1777715179 | 5.56° C | 93% | 1011.8 hPa | 0 mm | - | 6 W/m² | - |
| 1777714878 | 5° C | 92% | 1012 hPa | 0 mm | - | 3 W/m² | - |
| 1777714575 | 5° C | 92% | 1012 hPa | 0 mm | - | 2 W/m² | - |
| 1777714273 | 5° C | 92% | 1011.9 hPa | 0 mm | - | 1 W/m² | - |
| 1777713971 | 5° C | 92% | 1011.7 hPa | 0 mm | - | 0 W/m² | - |
| 1777713668 | 5° C | 92% | 1011.7 hPa | 0 mm | - | 0 W/m² | - |
| 1777713365 | 5° C | 92% | 1011.5 hPa | 0 mm | - | 0 W/m² | - |
| 1777713061 | 5° C | 92% | 1011.6 hPa | 0 mm | - | 0 W/m² | - |
| 1777712758 | 5° C | 92% | 1011.6 hPa | 0 mm | - | 0 W/m² | - |
| 1777712456 | 5° C | 92% | 1011.7 hPa | 0 mm | - | 0 W/m² | - |
| 1777712151 | 5° C | 92% | 1011.8 hPa | 0 mm | - | 0 W/m² | - |
| 1777711848 | 5° C | 92% | 1011.7 hPa | 0 mm | - | 0 W/m² | - |
| 1777711545 | 5° C | 92% | 1011.6 hPa | 0 mm | - | 0 W/m² | - |
| 1777711240 | 5° C | 92% | 1011.8 hPa | 0 mm | - | 0 W/m² | - |
| 1777710938 | 5° C | 92% | 1011.6 hPa | 0 mm | - | 0 W/m² | - |
| 1777710634 | 5° C | 91% | 1011.7 hPa | 0 mm | - | 0 W/m² | - |
| 1777710332 | 5° C | 92% | 1011.6 hPa | 0 mm | - | 0 W/m² | - |
| 1777710029 | 5° C | 92% | 1011.6 hPa | 0 mm | - | 0 W/m² | - |
| 1777709727 | 5° C | 92% | 1011.5 hPa | 0 mm | - | 0 W/m² | - |
| 1777709423 | 5° C | 92% | 1011.7 hPa | 0 mm | - | 0 W/m² | - |
* Rain latest hour (hover to see other rain measurements)
** Current wind speed in m/s (hover to see current wind gust speed)